This demonstration page uses our WeatherBlox Daily Observations layout. Learn more.

Left ArrowRight Arrow

34.02893, -84.19858

Hourly Observations for August 1, 2015

Temp ( °F °C ) Dew Point ( °F °C ) Humidity (%) Winds ( mph kmh ) Pressure ( in mb ) Visibility ( mi km ) Precip ( " mm )
12:53 am 00:53 Mostly Cloudy 78 25.6 63 17.2 60 60 N 5 7 29.91 1013 10 16 0.00 0.00
1:53 am 01:53 Mostly Cloudy 78 25.6 63 17.2 60 60 N 6 9 29.90 1013 10 16 0.00 0.00
2:53 am 02:53 Cloudy 78 25.6 62 16.7 58 58 N 6 9 29.89 1012 10 16 0.00 0.00
3:53 am 03:53 Cloudy 74 23.3 64 17.8 71 71 N 5 7 29.88 1012 10 16 0.00 0.00
4:53 am 04:53 Clear 72 22.2 65 18.3 79 79 N 6 9 29.87 1012 10 16 0.00 0.00
5:53 am 05:53 Clear 71 21.7 65 18.3 81 81 N 3 6 29.88 1012 10 16 0.00 0.00
6:53 am 06:53 Cloudy 73 22.8 65 18.3 76 76 N 5 7 29.90 1012 10 16 0.00 0.00
7:53 am 07:53 Mostly Cloudy 76 24.4 66 18.9 72 72 N 6 9 29.91 1013 10 16 0.00 0.00
8:53 am 08:53 Partly Cloudy 79 26.1 66 18.9 65 65 VRB 5 7 29.93 1013 10 16 0.00 0.00
9:53 am 09:53 Mostly Sunny 80 26.7 62 16.7 54 54 VRB 7 11 29.93 1014 10 16 0.00 0.00
10:53 am 10:53 Mostly Cloudy 81 27.2 62 16.7 53 53 VRB 7 11 29.94 1014 10 16 0.00 0.00
11:53 am 11:53 Cloudy 83 28.3 63 17.2 51 51 VRB 5 7 29.96 1015 10 16 0.00 0.00
12:53 pm 12:53 Cloudy 85 29.4 62 16.7 46 46 NE 7 11 29.96 1014 10 16 0.00 0.00
1:53 pm 13:53 Sunny 88 31.1 63 17.2 43 43 VRB 6 9 29.93 1014 10 16 0.00 0.00
2:53 pm 14:53 Sunny 89 31.7 62 16.7 41 41 VRB 5 7 29.91 1013 10 16 0.00 0.00
3:53 pm 15:53 Sunny 91 32.8 62 16.7 38 38 VRB 5 7 29.89 1012 10 16 0.00 0.00
4:53 pm 16:53 Mostly Cloudy 90 32.2 62 16.7 39 39 VRB 3 6 29.88 1012 10 16 0.00 0.00
5:53 pm 17:53 Mostly Cloudy 92 33.3 63 17.2 38 38 VRB 5 7 29.87 1011 10 16 0.00 0.00
6:53 pm 18:53 Sunny 91 32.8 64 17.8 41 41 N 12 19 29.86 1011 10 16 0.00 0.00
7:53 pm 19:53 Mostly Sunny 89 31.7 63 17.2 42 42 NNE 6 9 29.85 1011 10 16 0.00 0.00
8:53 pm 20:53 Mostly Cloudy 85 29.4 64 17.8 50 50 Calm 29.88 1012 10 16 0.00 0.00
9:53 pm 21:53 Clear 80 26.7 63 17.2 56 56 N 3 6 29.90 1013 10 16 0.00 0.00
10:53 pm 22:53 Clear 78 25.6 64 17.8 62 62 Calm 29.92 1013 10 16 0.00 0.00
11:53 pm 23:53 Clear 75 23.9 62 16.7 64 64 N 3 6 29.91 1013 10 16 0.00 0.00

Powered by AerisWeather